Weather History for Mountain Home, ID

Change the Weather History Date:

Sunday, January 20, 2013

  Actual Average Record
Temperature  
Mean Temperature 4 °F 31 °F  
Max Temperature 14 °F 39 °F 60 °F (1953)
Min Temperature -6 °F 22 °F -18 °F (1949)
Degree Days  
Heating Degree Days 61 34  
Month to date heating degree days 965 702  
Cooling Degree Days 0 0  
Month to date cooling degree days 0 0  
Moisture  
Dew Point -1 °F    
Average Humidity 100    
Maximum Humidity 100    
Minimum Humidity 100    
Precipitation  
Precipitation T in 0.03 in 0.87 in (1957)
Month to date precipitation 0.11 0.77  
Sea Level Pressure  
Sea Level Pressure 30.61 in    
Wind  
Wind Speed 1 mph (ENE)    
Max Wind Speed 7 mph    
Max Gust Speed -    
Visibility 3 miles    
Events Fog , Snow    
T = Trace of Precipitation, MM = Missing Value Source: NWS Daily Summary

Daily Weather History Graph

Daily Weather History Graph

Search for Another Location

Airport:

Trip Planner

Search our weather history database for the weather conditions in past years. The results will help you decide how hot, cold, wet, or windy it might be!

Date:

Astronomy

Jan. 20, 2013 Rise Set
Actual Time 8:08 AM MST 5:40 PM MST
Civil Twilight 7:37 AM MST 6:11 PM MST
Nautical Twilight 7:03 AM MST 6:46 PM MST
Astronomical Twilight 6:29 AM MST 7:20 PM MST
Moon 12:45 PM MST 2:44 AM MST
Length of Visible Light 10h 34m
Length of Day
9h 31m
Waxing Gibbous, 67% of the Moon is Illuminated
Jan 20
Waxing Gibbous
Jan 26
Full
Feb 3
Last Quarter
Feb 10
New
Feb 17
First Quarter

Hourly Weather History & Observations

Time (MST) Temp. Windchill Dew Point Humidity Pressure Visibility Wind Dir Wind Speed Gust Speed Precip Events Conditions
12:08 AM -0.4 °F - -0.4 °F 100% 30.57 in 3.0 mi Calm Calm - N/A   Clear
12:18 AM -0.4 °F - -0.4 °F 100% 30.57 in 3.0 mi Calm Calm - N/A   Clear
12:58 AM -2.2 °F - -2.2 °F 100% 30.77 in 4.0 mi NE 1.2 mph - N/A   Clear
1:58 AM -1.7 °F - -1.7 °F 100% 30.76 in 3.0 mi Calm Calm - N/A   Clear
2:43 AM -4.0 °F - -4.0 °F 100% 30.58 in 2.5 mi Calm Calm - N/A   Mostly Cloudy
2:48 AM -4.0 °F - -4.0 °F 100% 30.58 in 2.5 mi Calm Calm - N/A   Mostly Cloudy
2:53 AM -4.0 °F - -4.0 °F 100% 30.58 in 3.0 mi Calm Calm - N/A   Mostly Cloudy
2:58 AM -3.3 °F - -3.3 °F 100% 30.76 in 4.0 mi SE 1.2 mph - 0.00 in Snow Light Snow
3:08 AM -4.0 °F - -4.0 °F 100% 30.58 in 1.5 mi Calm Calm - N/A Snow Light Snow
3:13 AM -2.2 °F - -2.2 °F 100% 30.58 in 1.0 mi Calm Calm - N/A   Mist
3:18 AM -4.0 °F - -4.0 °F 100% 30.58 in 1.2 mi Calm Calm - N/A   Overcast
3:23 AM -4.0 °F - -4.0 °F 100% 30.58 in 1.5 mi Calm Calm - N/A   Overcast
3:28 AM -4.0 °F - -4.0 °F 100% 30.58 in 1.8 mi Calm Calm - N/A   Overcast
3:33 AM -4.0 °F - -4.0 °F 100% 30.58 in 2.0 mi Calm Calm - N/A   Overcast
3:53 AM -4.0 °F - -4.0 °F 100% 30.57 in 3.0 mi Calm Calm - N/A   Overcast
3:58 AM -4.2 °F - -4.2 °F 100% 30.57 in 3.0 mi ENE 1.2 mph - 0.00 in   Overcast
4:03 AM -4.0 °F - -4.0 °F 100% 30.57 in 2.5 mi NE 2.3 mph - N/A   Overcast
4:13 AM -4.0 °F - -4.0 °F 100% 30.58 in 3.0 mi NNE 2.3 mph - N/A   Overcast
4:38 AM -5.8 °F -16.7 °F -5.8 °F 100% 30.57 in 2.0 mi NE 4.6 mph - N/A   Overcast
4:43 AM -5.8 °F -16.7 °F -5.8 °F 100% 30.58 in 0.8 mi NE 4.6 mph - N/A   Mist
4:48 AM -5.8 °F -16.7 °F -5.8 °F 100% 30.57 in 0.5 mi NE 4.6 mph - N/A Fog Light Freezing Fog
4:53 AM -5.8 °F -14.5 °F -5.8 °F 100% 30.57 in 0.2 mi NE 3.5 mph - N/A Fog Light Freezing Fog
4:58 AM -5.3 °F -13.8 °F -5.3 °F 100% 30.57 in 0.2 mi NE 3.5 mph - N/A Fog Light Freezing Fog
5:33 AM -5.8 °F - -5.8 °F 100% 30.58 in 0.8 mi ENE 2.3 mph - N/A   Mist
5:38 AM -4.0 °F - -4.0 °F 100% 30.57 in 2.0 mi ENE 2.3 mph - N/A   Overcast
5:58 AM -4.5 °F - -4.5 °F 100% 30.58 in 2.5 mi Calm Calm - 0.00 in   Overcast
6:18 AM -5.8 °F - -5.8 °F 100% 30.57 in 1.8 mi NE 1.2 mph - N/A   Overcast
6:23 AM -5.8 °F - -5.8 °F 100% 30.58 in 1.5 mi Calm Calm - N/A   Overcast
6:28 AM -5.8 °F - -5.8 °F 100% 30.57 in 1.0 mi ENE 1.2 mph - N/A   Mist
6:38 AM -5.8 °F - -5.8 °F 100% 30.57 in 1.2 mi ENE 2.3 mph - N/A   Overcast
6:43 AM -5.8 °F - -5.8 °F 100% 30.57 in 1.5 mi NE 1.2 mph - N/A   Overcast
6:53 AM -4.0 °F - -4.0 °F 100% 30.57 in 1.8 mi Calm Calm - N/A   Overcast
6:58 AM -5.1 °F - -5.1 °F 100% 30.57 in 1.8 mi Calm Calm - N/A   Overcast
7:08 AM -5.8 °F - -5.8 °F 100% 30.58 in 1.8 mi NE 1.2 mph - N/A   Overcast
7:13 AM -4.0 °F - -4.0 °F 100% 30.58 in 2.0 mi NE 2.3 mph - N/A   Overcast
7:18 AM -4.0 °F - -4.0 °F 100% 30.58 in 2.0 mi Calm Calm - N/A Snow Light Snow
7:38 AM -4.0 °F - -4.0 °F 100% 30.58 in 4.0 mi Calm Calm - N/A Snow Light Snow
7:53 AM -4.0 °F - -4.0 °F 100% 30.59 in 2.5 mi Calm Calm - N/A Snow Light Snow
7:58 AM -3.6 °F - -3.6 °F 100% 30.59 in 1.2 mi Calm Calm - 0.00 in Snow Light Snow
8:03 AM -4.0 °F - -4.0 °F 100% 30.59 in 1.0 mi Calm Calm - N/A Snow Light Snow
8:08 AM -4.0 °F - -4.0 °F 100% 30.59 in 2.0 mi Calm Calm - N/A Snow Light Snow
8:13 AM -4.0 °F - -4.0 °F 100% 30.58 in 3.0 mi SE 1.2 mph - N/A   Mostly Cloudy
8:23 AM -4.0 °F - -4.0 °F 100% 30.58 in 2.5 mi East 2.3 mph - N/A   Overcast
8:28 AM -5.8 °F - -5.8 °F 100% 30.58 in 2.5 mi East 2.3 mph - N/A   Overcast
8:33 AM -5.8 °F - -5.8 °F 100% 30.58 in 2.0 mi East 1.2 mph - N/A   Overcast
8:58 AM -4.7 °F - -4.7 °F 100% 30.58 in 2.5 mi ESE 2.3 mph - 0.00 in   Overcast
9:23 AM -2.2 °F - -2.2 °F 100% 30.59 in 3.0 mi NE 2.3 mph - N/A Snow Light Snow
9:55 AM 1.4 °F - 1.4 °F 100% 30.60 in 4.0 mi Calm Calm - N/A   Scattered Clouds
9:58 AM 0.7 °F - 0.7 °F 100% 30.60 in 4.0 mi North - - 0.00 in   Scattered Clouds
10:58 AM 4.3 °F -4.9 °F 4.3 °F 100% 30.61 in 5.0 mi SE 4.6 mph - N/A   Clear
11:28 AM 6.8 °F -4.8 °F 6.8 °F 100% 30.61 in 5.0 mi SE 6.9 mph - N/A   Mostly Cloudy
11:58 AM 7.5 °F -1.1 °F 7.5 °F 100% 30.81 in 5.0 mi East 4.6 mph - N/A   Overcast
12:08 PM 8.6 °F 0.1 °F 8.6 °F 100% 30.60 in 5.0 mi ESE 4.6 mph - N/A   Overcast
12:23 PM 8.6 °F 0.1 °F 8.6 °F 100% 30.60 in 5.0 mi ESE 4.6 mph - N/A   Mostly Cloudy
12:33 PM 8.6 °F 2.0 °F 8.6 °F 100% 30.59 in 5.0 mi East 3.5 mph - N/A   Scattered Clouds
12:58 PM 9.9 °F - 9.9 °F 100% 30.79 in 4.0 mi SE 2.3 mph - N/A   Clear
1:58 PM 11.7 °F 5.5 °F 11.7 °F 100% 30.77 in 4.0 mi WSW 3.5 mph - N/A   Clear
2:58 PM 13.1 °F - 13.1 °F 100% 30.75 in 4.0 mi Variable 2.3 mph - N/A   Clear
3:58 PM 13.3 °F 7.3 °F 13.3 °F 100% 30.74 in 5.0 mi West 3.5 mph - N/A   Clear
4:58 PM 11.5 °F - 11.5 °F 100% 30.75 in 5.0 mi WNW 2.3 mph - N/A   Clear
5:58 PM 10.0 °F - 10.0 °F 100% 30.75 in 4.0 mi Calm Calm - N/A   Clear
6:13 PM 8.6 °F - 8.6 °F 100% 30.54 in 5.0 mi Calm Calm - N/A   Clear
6:58 PM 7.7 °F - 7.7 °F 100% 30.76 in 4.0 mi Calm Calm - N/A   Clear
7:48 PM 5.0 °F -2.1 °F 5.0 °F 100% 30.54 in 5.0 mi NNE 3.5 mph - N/A   Clear
7:58 PM 3.7 °F - 3.7 °F 100% 30.76 in 6.0 mi NNE 2.3 mph - N/A   Clear
8:38 PM 3.2 °F - 3.2 °F 100% 30.54 in 5.0 mi Calm Calm - N/A   Clear
8:58 PM 2.8 °F - 2.8 °F 100% 30.76 in 3.0 mi Calm Calm - N/A   Clear
9:03 PM 1.4 °F - 1.4 °F 100% 30.54 in 3.0 mi Calm Calm - N/A   Clear
9:13 PM 1.4 °F - 1.4 °F 100% 30.55 in 5.0 mi Calm Calm - N/A   Clear
9:18 PM 1.4 °F - 1.4 °F 100% 30.54 in 4.0 mi Calm Calm - N/A   Clear
9:28 PM 1.4 °F - 1.4 °F 100% 30.54 in 2.5 mi Calm Calm - N/A   Clear
9:38 PM 1.4 °F - 1.4 °F 100% 30.54 in 3.0 mi NNE 1.2 mph - N/A   Clear
9:48 PM -0.4 °F - -0.4 °F 100% 30.55 in 5.0 mi Calm Calm - N/A   Clear
9:58 PM -0.2 °F - -0.2 °F 100% 30.76 in 6.0 mi NNE 1.2 mph - N/A   Clear
10:58 PM -0.9 °F - -0.9 °F 100% 30.75 in 6.0 mi NE 2.3 mph - N/A   Clear
11:28 PM -0.4 °F - -0.4 °F 100% 30.54 in 5.0 mi Calm Calm - N/A   Clear
11:33 PM -0.4 °F - -0.4 °F 100% 30.54 in 5.0 mi Calm Calm - N/A   Clear
11:43 PM -0.4 °F - -0.4 °F 100% 30.54 in 5.0 mi Calm Calm - N/A   Clear
11:58 PM -0.8 °F - -0.8 °F 100% 30.75 in 4.0 mi Calm Calm - N/A   Clear